| time (UTC) | temp F | wind direction | speed MPH | gust MPH | rain 1hr in | rain 24hr in | rain mn in | humidity % | barometer mb |
| 20260831045306 | 79 | 78 | 2.0 | 3.0 | 0.00 | 0.04 | 0.04 | 55 | 1018.4 |
| 20260831044802 | 79 | 82 | 1.0 | 3.0 | 0.00 | 0.04 | 0.04 | 56 | 1018.4 |
| 20260831044301 | 79 | 84 | 0.0 | 0.0 | 0.00 | 0.04 | 0.04 | 56 | 1018.5 |
| 20260831043259 | 79 | 84 | 0.0 | 0.0 | 0.00 | 0.04 | 0.04 | 56 | 1018.8 |
| 20260831041759 | 79 | 132 | 0.0 | 0.0 | 0.00 | 0.04 | 0.04 | 55 | 1019.1 |
| 20260831041300 | 79 | 132 | 0.0 | 0.0 | 0.00 | 0.04 | 0.04 | 55 | 1019.1 |
| 20260831040755 | 79 | 132 | 0.0 | 0.0 | 0.00 | 0.04 | 0.04 | 55 | 1019.0 |
| 20260831040254 | 79 | 144 | 0.0 | 0.0 | 0.00 | 0.04 | 0.04 | 55 | 1019.0 |
| 20260831035753 | 79 | 144 | 0.0 | 0.0 | 0.00 | 0.04 | 0.04 | 54 | 1019.0 |
| 20260831034749 | 80 | 132 | 0.0 | 2.0 | 0.00 | 0.04 | 0.04 | 54 | 1019.0 |
| 20260831033746 | 80 | 189 | 1.0 | 3.0 | 0.00 | 0.05 | 0.04 | 53 | 1018.8 |
| 20260831033247 | 80 | 178 | 1.0 | 4.0 | 0.00 | 0.05 | 0.04 | 53 | 1018.9 |
| 20260831032747 | 80 | 194 | 0.0 | 4.0 | 0.00 | 0.06 | 0.04 | 52 | 1018.5 |
| 20260831032243 | 81 | 161 | 0.0 | 2.0 | 0.00 | 0.06 | 0.04 | 51 | 1018.4 |
| 20260831031743 | 81 | 108 | 0.0 | 2.0 | 0.00 | 0.10 | 0.04 | 51 | 1018.2 |
| 20260831031246 | 81 | 108 | 1.0 | 3.0 | 0.00 | 0.10 | 0.04 | 50 | 1018.1 |
| 20260831030741 | 81 | 119 | 0.0 | 3.0 | 0.00 | 0.10 | 0.04 | 50 | 1018.0 |
| 20260831030240 | 81 | 86 | 1.0 | 3.0 | 0.00 | 0.10 | 0.04 | 50 | 1017.9 |
| 20260831025739 | 81 | 114 | 1.0 | 4.0 | 0.00 | 0.10 | 0.04 | 50 | 1017.9 |
| 20260831025239 | 82 | 120 | 1.0 | 4.0 | 0.00 | 0.10 | 0.04 | 49 | 1017.9 |
| 20260831024736 | 82 | 128 | 1.0 | 5.0 | 0.00 | 0.10 | 0.04 | 48 | 1017.7 |
| 20260831023735 | 82 | 118 | 2.0 | 6.0 | 0.00 | 0.10 | 0.04 | 48 | 1017.7 |
| 20260831023233 | 82 | 93 | 2.0 | 6.0 | 0.00 | 0.10 | 0.04 | 48 | 1017.7 |
| 20260831022732 | 82 | 133 | 2.0 | 5.0 | 0.00 | 0.10 | 0.04 | 48 | 1017.7 |
| 20260831022226 | 82 | 104 | 2.0 | 3.0 | 0.00 | 0.10 | 0.04 | 48 | 1017.7 |
| 20260831021727 | 82 | 103 | 1.0 | 3.0 | 0.00 | 0.10 | 0.04 | 48 | 1017.7 |
| 20260831021227 | 82 | 102 | 1.0 | 3.0 | 0.00 | 0.10 | 0.04 | 48 | 1017.6 |
| 20260831020728 | 83 | 120 | 1.0 | 3.0 | 0.00 | 0.10 | 0.04 | 47 | 1017.7 |
| 20260831020227 | 83 | 93 | 1.0 | 3.0 | 0.00 | 0.10 | 0.04 | 47 | 1017.7 |
| 20260831015726 | 83 | 101 | 1.0 | 3.0 | 0.00 | 0.10 | 0.04 | 47 | 1017.7 |
| 20260831015227 | 83 | 112 | 0.0 | 3.0 | 0.00 | 0.10 | 0.04 | 46 | 1017.7 |
| 20260831014227 | 83 | 123 | 0.0 | 2.0 | 0.00 | 0.10 | 0.04 | 46 | 1017.6 |
| 20260831013724 | 83 | 112 | 0.0 | 1.0 | 0.00 | 0.10 | 0.04 | 46 | 1017.6 |
| 20260831013223 | 83 | 126 | 0.0 | 1.0 | 0.00 | 0.10 | 0.04 | 45 | 1017.6 |
| 20260831012221 | 83 | 105 | 0.0 | 2.0 | 0.00 | 0.10 | 0.04 | 45 | 1017.5 |
| 20260831011720 | 84 | 105 | 0.0 | 2.0 | 0.00 | 0.10 | 0.04 | 45 | 1017.5 |
| 20260831011219 | 84 | 120 | 0.0 | 0.0 | 0.00 | 0.10 | 0.04 | 44 | 1017.4 |
| 20260831010717 | 84 | 120 | 0.0 | 0.0 | 0.00 | 0.10 | 0.04 | 45 | 1017.4 |
| 20260831010217 | 84 | 120 | 0.0 | 1.0 | 0.00 | 0.10 | 0.04 | 44 | 1017.5 |
| 20260831005715 | 84 | 120 | 0.0 | 2.0 | 0.00 | 0.10 | 0.04 | 44 | 1017.5 |
| 20260831005213 | 84 | 120 | 0.0 | 2.0 | 0.00 | 0.10 | 0.04 | 42 | 1017.5 |
| 20260831004712 | 85 | 123 | 0.0 | 2.0 | 0.00 | 0.10 | 0.04 | 44 | 1017.5 |
| 20260831004211 | 85 | 129 | 0.0 | 2.0 | 0.00 | 0.10 | 0.04 | 45 | 1017.5 |
| 20260831002207 | 86 | 104 | 0.0 | 1.0 | 0.00 | 0.10 | 0.04 | 42 | 1017.3 |
| 20260831001701 | 86 | 104 | 1.0 | 4.0 | 0.00 | 0.10 | 0.04 | 40 | 1017.1 |
| 20260831001201 | 86 | 71 | 1.0 | 5.0 | 0.00 | 0.10 | 0.04 | 41 | 1017.1 |
| 20260831000659 | 86 | 22 | 1.0 | 5.0 | 0.00 | 0.10 | 0.04 | 40 | 1017.2 |
| 20260831000157 | 87 | 82 | 2.0 | 5.0 | 0.00 | 0.10 | 0.04 | 40 | 1017.3 |
| 20260830235655 | 87 | 67 | 1.0 | 5.0 | 0.00 | 0.10 | 0.04 | 39 | 1017.3 |
| 20260830235155 | 88 | 71 | 0.0 | 3.0 | 0.00 | 0.10 | 0.04 | 39 | 1017.4 |
| 20260830234655 | 88 | 132 | 0.0 | 0.0 | 0.00 | 0.10 | 0.04 | 43 | 1017.4 |
| 20260830234154 | 88 | 132 | 0.0 | 0.0 | 0.00 | 0.10 | 0.04 | 39 | 1017.4 |
| 20260830233653 | 88 | 132 | 1.0 | 3.0 | 0.00 | 0.10 | 0.04 | 39 | 1017.4 |
| 20260830233153 | 89 | 132 | 1.0 | 3.0 | 0.00 | 0.10 | 0.04 | 38 | 1017.3 |
| 20260830232650 | 89 | 37 | 1.0 | 4.0 | 0.00 | 0.10 | 0.04 | 39 | 1017.5 |
| 20260830232149 | 89 | 37 | 2.0 | 5.0 | 0.00 | 0.10 | 0.04 | 40 | 1017.4 |
| 20260830231648 | 89 | 40 | 2.0 | 5.0 | 0.00 | 0.10 | 0.04 | 39 | 1017.4 |
| 20260830231146 | 90 | 355 | 1.0 | 4.0 | 0.00 | 0.10 | 0.04 | 38 | 1017.4 |
| 20260830230646 | 90 | 57 | 0.0 | 2.0 | 0.00 | 0.10 | 0.04 | 39 | 1017.5 |
| 20260830225646 | 91 | 32 | 1.0 | 3.0 | 0.00 | 0.10 | 0.04 | 36 | 1017.5 |
| 20260830225147 | 91 | 26 | 0.0 | 3.0 | 0.00 | 0.10 | 0.04 | 39 | 1017.7 |
| 20260830224647 | 90 | 5 | 1.0 | 6.0 | 0.00 | 0.10 | 0.04 | 38 | 1017.7 |
| 20260830224143 | 90 | 50 | 2.0 | 6.0 | 0.00 | 0.10 | 0.04 | 39 | 1017.9 |
| 20260830223643 | 90 | 51 | 2.0 | 4.0 | 0.00 | 0.10 | 0.04 | 39 | 1018.0 |
| 20260830222642 | 90 | 29 | 3.0 | 7.0 | 0.00 | 0.10 | 0.04 | 38 | 1018.1 |
| 20260830222141 | 90 | 28 | 3.0 | 7.0 | 0.00 | 0.10 | 0.04 | 38 | 1018.1 |
| 20260830221643 | 89 | 32 | 4.0 | 8.0 | 0.00 | 0.10 | 0.04 | 41 | 1018.3 |
| 20260830220639 | 90 | 29 | 4.0 | 7.0 | 0.00 | 0.10 | 0.04 | 38 | 1018.4 |
| 20260830220139 | 89 | 28 | 4.0 | 10.0 | 0.00 | 0.10 | 0.04 | 39 | 1018.5 |
| 20260830215638 | 90 | 62 | 3.0 | 10.0 | 0.00 | 0.10 | 0.04 | 37 | 1018.6 |
| 20260830215138 | 90 | 11 | 3.0 | 7.0 | 0.00 | 0.10 | 0.04 | 38 | 1018.6 |
| 20260830214137 | 89 | 53 | 2.0 | 4.0 | 0.00 | 0.10 | 0.04 | 39 | 1018.9 |
| 20260830213637 | 89 | 61 | 2.0 | 7.0 | 0.00 | 0.10 | 0.04 | 39 | 1019.0 |
| 20260830213139 | 89 | 5 | 2.0 | 7.0 | 0.00 | 0.10 | 0.04 | 40 | 1019.1 |
| 20260830212133 | 88 | 24 | 3.0 | 5.0 | 0.00 | 0.10 | 0.04 | 40 | 1019.2 |
| 20260830211633 | 89 | 86 | 3.0 | 7.0 | 0.00 | 0.10 | 0.04 | 39 | 1019.3 |
| 20260830210633 | 90 | 42 | 3.0 | 7.0 | 0.00 | 0.10 | 0.04 | 40 | 1019.4 |
| 20260830210133 | 89 | 30 | 3.0 | 8.0 | 0.00 | 0.10 | 0.04 | 39 | 1019.7 |
| 20260830204633 | 89 | 81 | 3.0 | 7.0 | 0.00 | 0.10 | 0.04 | 38 | 1019.9 |
| 20260830204129 | 89 | 52 | 3.0 | 9.0 | 0.00 | 0.10 | 0.04 | 40 | 1020.0 |
| 20260830203628 | 89 | 61 | 3.0 | 9.0 | 0.00 | 0.10 | 0.04 | 40 | 1020.1 |
| 20260830203128 | 89 | 355 | 3.0 | 9.0 | 0.00 | 0.10 | 0.04 | 39 | 1020.1 |
| 20260830202124 | 89 | 0 | 3.0 | 9.0 | 0.00 | 0.10 | 0.04 | 42 | 1020.2 |
| 20260830201120 | 87 | 9 | 4.0 | 10.0 | 0.00 | 0.10 | 0.04 | 43 | 1020.4 |
| 20260830200621 | 88 | 57 | 3.0 | 10.0 | 0.00 | 0.10 | 0.04 | 41 | 1020.5 |
| 20260830200123 | 88 | 342 | 3.0 | 7.0 | 0.00 | 0.10 | 0.04 | 41 | 1020.6 |
| 20260830195620 | 87 | 0 | 3.0 | 7.0 | 0.00 | 0.10 | 0.04 | 45 | 1020.7 |
| 20260830195119 | 87 | 28 | 4.0 | 8.0 | 0.00 | 0.10 | 0.04 | 44 | 1020.7 |
| 20260830194618 | 87 | 44 | 4.0 | 8.0 | 0.00 | 0.10 | 0.04 | 43 | 1020.7 |
| 20260830194118 | 87 | 34 | 3.0 | 8.0 | 0.00 | 0.10 | 0.04 | 43 | 1020.7 |
| 20260830193618 | 87 | 36 | 2.0 | 7.0 | 0.00 | 0.10 | 0.04 | 43 | 1020.8 |
| 20260830193119 | 87 | 24 | 2.0 | 4.0 | 0.00 | 0.10 | 0.04 | 48 | 1020.8 |
| 20260830192619 | 87 | 49 | 2.0 | 6.0 | 0.00 | 0.10 | 0.04 | 46 | 1020.8 |
| 20260830192119 | 86 | 355 | 3.0 | 7.0 | 0.00 | 0.10 | 0.04 | 47 | 1020.9 |
| 20260830191619 | 86 | 26 | 3.0 | 8.0 | 0.00 | 0.10 | 0.04 | 47 | 1021.0 |
| 20260830191119 | 85 | 27 | 3.0 | 8.0 | 0.00 | 0.10 | 0.04 | 47 | 1021.1 |
| 20260830190613 | 85 | 0 | 3.0 | 8.0 | 0.00 | 0.10 | 0.04 | 49 | 1021.3 |
| 20260830190111 | 86 | 30 | 3.0 | 8.0 | 0.00 | 0.10 | 0.04 | 50 | 1021.4 |
| 20260830185111 | 85 | 348 | 2.0 | 6.0 | 0.00 | 0.10 | 0.04 | 51 | 1021.5 |
| 20260830184610 | 85 | 18 | 3.0 | 6.0 | 0.00 | 0.10 | 0.04 | 53 | 1021.6 |
| 20260830184105 | 85 | 350 | 2.0 | 7.0 | 0.00 | 0.10 | 0.04 | 52 | 1021.6 |
| 20260830183604 | 85 | 35 | 1.0 | 7.0 | 0.00 | 0.10 | 0.04 | 52 | 1021.6 |
| 20260830183104 | 84 | 351 | 1.0 | 3.0 | 0.00 | 0.11 | 0.04 | 51 | 1021.6 |
| 20260830182605 | 84 | 33 | 1.0 | 4.0 | 0.00 | 0.11 | 0.04 | 53 | 1021.8 |
| 20260830182105 | 83 | 348 | 0.0 | 4.0 | 0.00 | 0.11 | 0.04 | 55 | 1021.8 |
| 20260830181604 | 83 | 247 | 0.0 | 2.0 | 0.00 | 0.11 | 0.04 | 58 | 1021.8 |
| 20260830181105 | 83 | 247 | 0.0 | 2.0 | 0.00 | 0.11 | 0.04 | 57 | 1021.8 |
| 20260830180604 | 82 | 264 | 0.0 | 2.0 | 0.00 | 0.11 | 0.04 | 62 | 1021.8 |
| 20260830180105 | 81 | 234 | 0.0 | 4.0 | 0.00 | 0.11 | 0.04 | 63 | 1021.9 |
| 20260830175105 | 80 | 240 | 0.0 | 3.0 | 0.00 | 0.11 | 0.04 | 69 | 1021.9 |
| 20260830173604 | 78 | 262 | 0.0 | 1.0 | 0.00 | 0.11 | 0.04 | 74 | 1022.3 |
| 20260830172605 | 76 | 244 | 0.0 | 2.0 | 0.03 | 0.11 | 0.04 | 78 | 1022.3 |
| 20260830172105 | 76 | 244 | 0.0 | 2.0 | 0.03 | 0.11 | 0.04 | 76 | 1022.3 |
| 20260830171604 | 76 | 244 | 0.0 | 0.0 | 0.03 | 0.11 | 0.04 | 78 | 1022.2 |
| 20260830171104 | 75 | 271 | 0.0 | 0.0 | 0.03 | 0.11 | 0.04 | 80 | 1022.3 |
| 20260830170605 | 75 | 271 | 0.0 | 0.0 | 0.03 | 0.11 | 0.04 | 82 | 1022.3 |
| 20260830170105 | 74 | 215 | 0.0 | 0.0 | 0.04 | 0.11 | 0.04 | 80 | 1022.3 |
| 20260830165605 | 74 | 215 | 0.0 | 0.0 | 0.04 | 0.11 | 0.04 | 83 | 1022.3 |
| 20260830165104 | 74 | 215 | 0.0 | 0.0 | 0.04 | 0.11 | 0.04 | 84 | 1022.3 |
| 20260830164605 | 73 | 215 | 0.0 | 0.0 | 0.04 | 0.11 | 0.04 | 84 | 1022.3 |
| 20260830164104 | 73 | 215 | 0.0 | 0.0 | 0.04 | 0.11 | 0.04 | 84 | 1022.4 |
| 20260830163605 | 73 | 215 | 0.0 | 0.0 | 0.04 | 0.11 | 0.04 | 81 | 1022.4 |
| 20260830163104 | 73 | 215 | 0.0 | 0.0 | 0.02 | 0.09 | 0.03 | 78 | 1022.5 |
| 20260830162605 | 73 | 215 | 0.0 | 0.0 | 0.01 | 0.08 | 0.01 | 78 | 1022.5 |
| 20260830162105 | 73 | 215 | 0.0 | 0.0 | 0.01 | 0.08 | 0.01 | 79 | 1022.4 |
| 20260830161605 | 74 | 215 | 0.0 | 0.0 | 0.01 | 0.08 | 0.01 | 77 | 1022.3 |
| 20260830160104 | 74 | 215 | 0.0 | 0.0 | 0.00 | 0.07 | 0.00 | 77 | 1022.5 |
| 20260830155604 | 74 | 215 | 0.0 | 2.0 | 0.00 | 0.07 | 0.00 | 74 | 1022.5 |
| 20260830155104 | 75 | 215 | 0.0 | 2.0 | 0.00 | 0.07 | 0.00 | 74 | 1022.4 |
| 20260830154605 | 77 | 311 | 0.0 | 0.0 | 0.00 | 0.07 | 0.00 | 70 | 1022.3 |
| 20260830154104 | 77 | 333 | 0.0 | 0.0 | 0.00 | 0.07 | 0.00 | 71 | 1022.2 |
| 20260830153605 | 76 | 333 | 0.0 | 0.0 | 0.00 | 0.07 | 0.00 | 68 | 1022.2 |
| 20260830153104 | 77 | 322 | 0.0 | 0.0 | 0.00 | 0.07 | 0.00 | 67 | 1022.2 |
| 20260830152604 | 77 | 322 | 0.0 | 0.0 | 0.00 | 0.07 | 0.00 | 68 | 1022.1 |
| 20260830152105 | 76 | 329 | 0.0 | 0.0 | 0.00 | 0.07 | 0.00 | 69 | 1022.1 |
| 20260830151604 | 76 | 130 | 0.0 | 0.0 | 0.00 | 0.07 | 0.00 | 69 | 1022.1 |
| 20260830151104 | 76 | 130 | 0.0 | 0.0 | 0.00 | 0.07 | 0.00 | 69 | 1021.9 |
| 20260830150605 | 76 | 130 | 0.0 | 0.0 | 0.00 | 0.07 | 0.00 | 69 | 1021.9 |
| 20260830145604 | 75 | 124 | 0.0 | 0.0 | 0.00 | 0.07 | 0.00 | 71 | 1021.9 |
| 20260830145105 | 74 | 134 | 0.0 | 0.0 | 0.00 | 0.07 | 0.00 | 71 | 1021.8 |
| 20260830144605 | 74 | 134 | 0.0 | 0.0 | 0.00 | 0.07 | 0.00 | 71 | 1021.8 |
| 20260830144105 | 73 | 134 | 0.0 | 0.0 | 0.00 | 0.07 | 0.00 | 74 | 1021.8 |
| 20260830143105 | 72 | 134 | 0.0 | 0.0 | 0.00 | 0.07 | 0.00 | 75 | 1021.9 |
| 20260830142604 | 71 | 134 | 0.0 | 0.0 | 0.00 | 0.07 | 0.00 | 77 | 1021.9 |
| 20260830141105 | 69 | 134 | 0.0 | 0.0 | 0.00 | 0.07 | 0.00 | 83 | 1021.7 |
| 20260830140604 | 68 | 134 | 0.0 | 0.0 | 0.00 | 0.07 | 0.00 | 83 | 1021.7 |
| 20260830140105 | 67 | 134 | 0.0 | 0.0 | 0.00 | 0.07 | 0.00 | 84 | 1021.7 |
| 20260830135604 | 67 | 134 | 0.0 | 0.0 | 0.00 | 0.07 | 0.00 | 84 | 1021.7 |
| 20260830135104 | 67 | 134 | 0.0 | 0.0 | 0.00 | 0.07 | 0.00 | 85 | 1021.6 |
| 20260830134605 | 67 | 134 | 0.0 | 1.0 | 0.00 | 0.07 | 0.00 | 84 | 1021.5 |
| 20260830134104 | 67 | 134 | 0.0 | 1.0 | 0.00 | 0.07 | 0.00 | 84 | 1021.5 |
| 20260830132104 | 66 | 134 | 0.0 | 0.0 | 0.00 | 0.07 | 0.00 | 84 | 1021.4 |
| 20260830131605 | 66 | 134 | 0.0 | 0.0 | 0.00 | 0.07 | 0.00 | 85 | 1021.1 |
| 20260830131104 | 66 | 134 | 0.0 | 0.0 | 0.00 | 0.07 | 0.00 | 85 | 1021.0 |
| 20260830130604 | 66 | 134 | 0.0 | 0.0 | 0.00 | 0.07 | 0.00 | 85 | 1020.9 |
| 20260830130105 | 66 | 134 | 0.0 | 0.0 | 0.00 | 0.07 | 0.00 | 85 | 1020.8 |
| 20260830125605 | 66 | 134 | 0.0 | 0.0 | 0.00 | 0.07 | 0.00 | 85 | 1020.7 |
| 20260830125104 | 66 | 134 | 0.0 | 0.0 | 0.00 | 0.07 | 0.00 | 86 | 1020.7 |
| 20260830124604 | 66 | 134 | 0.0 | 0.0 | 0.00 | 0.07 | 0.00 | 86 | 1020.7 |
| 20260830124104 | 65 | 134 | 0.0 | 0.0 | 0.00 | 0.07 | 0.00 | 86 | 1020.6 |
| 20260830123604 | 65 | 134 | 0.0 | 0.0 | 0.00 | 0.07 | 0.00 | 86 | 1020.6 |
| 20260830123105 | 65 | 134 | 0.0 | 0.0 | 0.00 | 0.07 | 0.00 | 86 | 1020.5 |
| 20260830122605 | 65 | 134 | 0.0 | 0.0 | 0.00 | 0.07 | 0.00 | 87 | 1020.5 |
| 20260830122104 | 65 | 134 | 0.0 | 0.0 | 0.00 | 0.07 | 0.00 | 87 | 1020.5 |
| 20260830121604 | 65 | 134 | 0.0 | 0.0 | 0.00 | 0.07 | 0.00 | 87 | 1020.5 |
| 20260830121104 | 65 | 134 | 0.0 | 0.0 | 0.00 | 0.07 | 0.00 | 87 | 1020.5 |
| 20260830120104 | 65 | 134 | 0.0 | 2.0 | 0.00 | 0.07 | 0.00 | 87 | 1020.6 |
| 20260830115605 | 65 | 123 | 0.0 | 0.0 | 0.00 | 0.07 | 0.00 | 87 | 1020.6 |
| 20260830115104 | 66 | 95 | 0.0 | 0.0 | 0.00 | 0.07 | 0.00 | 87 | 1020.6 |
| 20260830114605 | 66 | 95 | 0.0 | 0.0 | 0.00 | 0.07 | 0.00 | 87 | 1020.6 |
| 20260830114104 | 66 | 95 | 0.0 | 0.0 | 0.00 | 0.07 | 0.00 | 87 | 1020.6 |
| 20260830113603 | 66 | 95 | 0.0 | 0.0 | 0.00 | 0.07 | 0.00 | 87 | 1020.6 |
| 20260830112558 | 66 | 95 | 0.0 | 0.0 | 0.00 | 0.07 | 0.00 | 86 | 1020.6 |
| 20260830112059 | 66 | 95 | 0.0 | 0.0 | 0.00 | 0.07 | 0.00 | 86 | 1020.5 |
| 20260830111558 | 67 | 95 | 0.0 | 0.0 | 0.00 | 0.07 | 0.00 | 86 | 1020.5 |
| 20260830111058 | 67 | 95 | 0.0 | 0.0 | 0.00 | 0.07 | 0.00 | 85 | 1020.6 |
| 20260830110559 | 67 | 95 | 0.0 | 0.0 | 0.00 | 0.07 | 0.00 | 86 | 1020.6 |
| 20260830110056 | 67 | 95 | 0.0 | 0.0 | 0.00 | 0.07 | 0.00 | 86 | 1020.6 |
| 20260830105554 | 67 | 95 | 0.0 | 0.0 | 0.00 | 0.07 | 0.00 | 85 | 1020.7 |
| 20260830105055 | 67 | 95 | 0.0 | 0.0 | 0.00 | 0.07 | 0.00 | 85 | 1020.7 |
| 20260830104553 | 67 | 95 | 0.0 | 0.0 | 0.00 | 0.07 | 0.00 | 85 | 1020.8 |
| 20260830104050 | 67 | 95 | 0.0 | 0.0 | 0.00 | 0.07 | 0.00 | 84 | 1020.9 |
| 20260830103045 | 67 | 95 | 0.0 | 0.0 | 0.00 | 0.07 | 0.00 | 84 | 1020.7 |
| 20260830102544 | 67 | 95 | 0.0 | 0.0 | 0.00 | 0.07 | 0.00 | 84 | 1020.7 |
| 20260830102045 | 67 | 95 | 0.0 | 0.0 | 0.00 | 0.07 | 0.00 | 84 | 1020.8 |
| 20260830101545 | 67 | 95 | 0.0 | 0.0 | 0.00 | 0.07 | 0.00 | 85 | 1020.8 |
| 20260830101044 | 67 | 95 | 0.0 | 0.0 | 0.00 | 0.07 | 0.00 | 85 | 1020.8 |
| 20260830100042 | 67 | 95 | 0.0 | 0.0 | 0.00 | 0.07 | 0.00 | 84 | 1020.8 |
| 20260830095542 | 67 | 95 | 0.0 | 0.0 | 0.00 | 0.07 | 0.00 | 84 | 1020.8 |
| 20260830095042 | 68 | 95 | 0.0 | 0.0 | 0.00 | 0.07 | 0.00 | 84 | 1020.8 |
| 20260830094042 | 68 | 95 | 0.0 | 0.0 | 0.00 | 0.07 | 0.00 | 83 | 1020.6 |
| 20260830090035 | 69 | 37 | 0.0 | 0.0 | 0.00 | 0.07 | 0.00 | 81 | 1021.0 |
| 20260830085534 | 69 | 37 | 0.0 | 0.0 | 0.00 | 0.07 | 0.00 | 80 | 1021.0 |
| 20260830085032 | 69 | 37 | 0.0 | 0.0 | 0.00 | 0.07 | 0.00 | 80 | 1020.9 |
| 20260830084531 | 69 | 37 | 0.0 | 0.0 | 0.00 | 0.07 | 0.00 | 79 | 1020.8 |
| 20260830084032 | 70 | 37 | 0.0 | 0.0 | 0.00 | 0.07 | 0.00 | 79 | 1021.0 |
| 20260830083533 | 70 | 37 | 0.0 | 0.0 | 0.00 | 0.07 | 0.00 | 77 | 1021.0 |
| 20260830082534 | 70 | 37 | 1.0 | 4.0 | 0.00 | 0.07 | 0.00 | 76 | 1021.1 |
| 20260830082030 | 71 | 37 | 2.0 | 4.0 | 0.00 | 0.07 | 0.00 | 75 | 1021.1 |
| 20260830081531 | 71 | 31 | 2.0 | 6.0 | 0.00 | 0.07 | 0.00 | 73 | 1021.4 |
| 20260830081029 | 71 | 19 | 2.0 | 6.0 | 0.00 | 0.07 | 0.00 | 72 | 1021.3 |
| 20260830080027 | 72 | 35 | 1.0 | 3.0 | 0.00 | 0.07 | 0.00 | 69 | 1020.9 |
| 20260830075526 | 72 | 59 | 1.0 | 3.0 | 0.00 | 0.07 | 0.00 | 68 | 1020.9 |
| 20260830075026 | 72 | 59 | 2.0 | 3.0 | 0.00 | 0.07 | 0.00 | 68 | 1020.8 |
| 20260830074524 | 71 | 53 | 1.0 | 3.0 | 0.00 | 0.07 | 0.00 | 69 | 1020.8 |
| 20260830074022 | 71 | 95 | 1.0 | 3.0 | 0.00 | 0.07 | 0.00 | 71 | 1020.8 |
| 20260830073020 | 70 | 98 | 2.0 | 5.0 | 0.00 | 0.07 | 0.00 | 75 | 1020.7 |
| 20260830072521 | 69 | 82 | 1.0 | 5.0 | 0.00 | 0.07 | 0.00 | 77 | 1020.7 |
| 20260830071518 | 69 | 170 | 0.0 | 0.0 | 0.00 | 0.07 | 0.00 | 76 | 1020.6 |
| 20260830071018 | 69 | 170 | 0.0 | 2.0 | 0.00 | 0.07 | 0.00 | 76 | 1020.1 |
| 20260830070512 | 69 | 175 | 0.0 | 2.0 | 0.00 | 0.07 | 0.00 | 77 | 1020.2 |
| 20260830070012 | 69 | 173 | 0.0 | 0.0 | 0.00 | 0.07 | 0.00 | 77 | 1020.1 |
| 20260830065512 | 69 | 173 | 0.0 | 0.0 | 0.00 | 0.07 | 0.07 | 77 | 1020.0 |
| 20260830065009 | 69 | 173 | 0.0 | 0.0 | 0.00 | 0.07 | 0.07 | 77 | 1020.1 |
| 20260830064507 | 69 | 173 | 0.0 | 2.0 | 0.00 | 0.07 | 0.07 | 76 | 1020.0 |
| 20260830064007 | 69 | 173 | 0.0 | 2.0 | 0.00 | 0.07 | 0.07 | 76 | 1019.8 |
| 20260830063506 | 69 | 181 | 0.0 | 2.0 | 0.00 | 0.07 | 0.07 | 77 | 1019.7 |
| 20260830063008 | 69 | 182 | 0.0 | 2.0 | 0.00 | 0.07 | 0.07 | 76 | 1019.8 |
| 20260830061958 | 70 | 155 | 0.0 | 1.0 | 0.00 | 0.07 | 0.07 | 76 | 1019.7 |
| 20260830061456 | 69 | 141 | 0.0 | 0.0 | 0.00 | 0.07 | 0.07 | 78 | 1019.8 |
| 20260830060956 | 69 | 144 | 0.0 | 2.0 | 0.00 | 0.07 | 0.07 | 79 | 1019.8 |
| 20260830060455 | 70 | 161 | 0.0 | 4.0 | 0.00 | 0.07 | 0.07 | 80 | 1019.9 |
| 20260830055953 | 70 | 132 | 0.0 | 4.0 | 0.00 | 0.07 | 0.07 | 78 | 1019.9 |
| 20260830055451 | 70 | 238 | 0.0 | 0.0 | 0.00 | 0.07 | 0.07 | 78 | 1020.0 |
| 20260830054951 | 69 | 140 | 0.0 | 0.0 | 0.00 | 0.07 | 0.07 | 80 | 1020.0 |
| 20260830054449 | 70 | 148 | 0.0 | 2.0 | 0.00 | 0.07 | 0.07 | 79 | 1020.0 |
| 20260830053951 | 70 | 244 | 0.0 | 2.0 | 0.00 | 0.07 | 0.07 | 78 | 1020.4 |
| 20260830053443 | 71 | 244 | 1.0 | 3.0 | 0.00 | 0.07 | 0.07 | 75 | 1020.2 |
| 20260830052437 | 71 | 147 | 1.0 | 3.0 | 0.00 | 0.07 | 0.07 | 75 | 1020.5 |
| 20260830051433 | 73 | 46 | 1.0 | 5.0 | 0.00 | 0.07 | 0.07 | 71 | 1020.6 |
| 20260830050933 | 74 | 315 | 2.0 | 6.0 | 0.00 | 0.07 | 0.07 | 65 | 1020.2 |
| 20260830050432 | 74 | 270 | 2.0 | 9.0 | 0.00 | 0.07 | 0.07 | 61 | 1020.1 |
| 20260830045927 | 73 | 69 | 2.0 | 9.0 | 0.00 | 0.07 | 0.07 | 62 | 1020.1 |